Location: Newark
(13.8117°N, 3.6025°W)
Time: 00:28:33
(UTC+00:00)

Courier 1B - Pass Details

Date: 21 August 2019
Orbit: 962 x 1209 km, 28.3° (Epoch: 18 September)

Event Time Altitude Azimuth Distance (km) Brightness Sun altitude
Rises 21:56:40 0° 304° (NW) 3,635 11.2 -46.6°
Reaches altitude 10° 21:59:39 10° 315° (NW) 2,683 10.3 -47.2°
Enters shadow 22:00:42 14° 321° (NW) 2,383 10.0 -47.4°
